BAW55W EGKK-EDDB

Flight info

Callsign BAW55W
Flight time 1h 21m
Altitude 35000
Route FRANE M604 GASBA M197 REDFA DCT TACHA DCT ROBEG L980 SAS/N0396F230 T207 OGBER OGBER1R
Aircraft A321/M-SDE3FGHIRWY/LB1

Departure

Time 2026-05-06 14:00
Airport London Gatwick Airport (EGKK)

Arrival

Time 2026-05-06 15:22
Airport Berlin Brandenburg Airport (EDDB)
Time Latitude Longitude Altitude Speed Heading
2026-05-06 13:33 51.15512 -0.16722 209 ft 0 kts 347°
2026-05-06 13:46 51.15501 -0.16718 216 ft 4 kts 343°
2026-05-06 13:46 51.15476 -0.16702 217 ft 4 kts 329°
2026-05-06 13:46 51.15456 -0.16676 217 ft 4 kts 296°
2026-05-06 13:47 51.15452 -0.16650 213 ft 0 kts 258°
2026-05-06 13:50 51.15452 -0.16653 213 ft 2 kts 258°
2026-05-06 13:50 51.15448 -0.16718 213 ft 9 kts 275°
2026-05-06 13:50 51.15450 -0.16820 208 ft 10 kts 258°
2026-05-06 13:50 51.15435 -0.16931 204 ft 11 kts 257°
2026-05-06 13:51 51.15418 -0.17054 204 ft 12 kts 257°
2026-05-06 13:51 51.15392 -0.17183 207 ft 13 kts 248°
2026-05-06 13:51 51.15365 -0.17309 208 ft 11 kts 252°
2026-05-06 13:51 51.15311 -0.17395 211 ft 11 kts 233°
2026-05-06 13:52 51.15291 -0.17521 204 ft 12 kts 258°
2026-05-06 13:52 51.15273 -0.17659 213 ft 13 kts 258°
2026-05-06 13:52 51.15253 -0.17806 208 ft 14 kts 257°
2026-05-06 13:52 51.15231 -0.17963 209 ft 15 kts 257°
2026-05-06 13:53 51.15216 -0.18067 211 ft 5 kts 258°
2026-05-06 13:53 51.15213 -0.18092 214 ft 2 kts 257°
2026-05-06 13:53 51.15209 -0.18119 205 ft 3 kts 256°
2026-05-06 13:53 51.15196 -0.18207 210 ft 15 kts 258°
2026-05-06 13:54 51.15177 -0.18394 207 ft 18 kts 258°
2026-05-06 13:54 51.15150 -0.18591 205 ft 19 kts 257°
2026-05-06 13:54 51.15122 -0.18796 207 ft 19 kts 258°
2026-05-06 13:54 51.15094 -0.19007 209 ft 20 kts 257°
2026-05-06 13:55 51.15064 -0.19224 205 ft 20 kts 258°
2026-05-06 13:55 51.15033 -0.19448 205 ft 21 kts 257°
2026-05-06 13:55 51.15002 -0.19677 209 ft 22 kts 258°
2026-05-06 13:55 51.14968 -0.19914 209 ft 22 kts 257°
2026-05-06 13:56 51.14934 -0.20159 208 ft 23 kts 258°
2026-05-06 13:56 51.14900 -0.20411 208 ft 24 kts 257°
2026-05-06 13:56 51.14863 -0.20670 205 ft 24 kts 257°
2026-05-06 13:56 51.14835 -0.20871 208 ft 15 kts 258°
2026-05-06 13:57 51.14813 -0.21035 210 ft 16 kts 258°
2026-05-06 13:57 51.14794 -0.21156 214 ft 9 kts 247°
2026-05-06 13:57 51.14773 -0.21259 205 ft 10 kts 257°
2026-05-06 13:57 51.14753 -0.21372 213 ft 11 kts 240°
2026-05-06 13:58 51.14685 -0.21386 214 ft 11 kts 151°
2026-05-06 13:58 51.14628 -0.21335 207 ft 6 kts 165°
2026-05-06 13:58 51.14627 -0.21334 207 ft 0 kts 165°
2026-05-06 13:59 51.14624 -0.21333 210 ft 3 kts 166°
2026-05-06 13:59 51.14559 -0.21295 216 ft 14 kts 146°
2026-05-06 13:59 51.14525 -0.21154 206 ft 14 kts 83°
2026-05-06 13:59 51.14545 -0.21001 211 ft 14 kts 77°
2026-05-06 14:00 51.14576 -0.20775 209 ft 45 kts 77°
2026-05-06 14:00 51.14696 -0.19909 210 ft 113 kts 78°
2026-05-06 14:00 51.14904 -0.18402 238 ft 161 kts 80°
2026-05-06 14:00 51.15102 -0.16655 935 ft 161 kts 77°
2026-05-06 14:01 51.15340 -0.14883 1565 ft 170 kts 73°
2026-05-06 14:01 51.15620 -0.12947 1916 ft 188 kts 72°
2026-05-06 14:01 51.15935 -0.10822 2230 ft 206 kts 74°
2026-05-06 14:01 51.16270 -0.08487 2469 ft 228 kts 74°
2026-05-06 14:02 51.16634 -0.05873 2731 ft 251 kts 73°
2026-05-06 14:02 51.16904 -0.03094 3392 ft 259 kts 88°
2026-05-06 14:02 51.16854 -0.00201 4122 ft 263 kts 89°
2026-05-06 14:02 51.16795 0.02726 4832 ft 267 kts 88°
2026-05-06 14:03 51.16736 0.05700 5002 ft 268 kts 88°
2026-05-06 14:03 51.16677 0.08656 5036 ft 267 kts 89°
2026-05-06 14:03 51.16619 0.11608 5076 ft 268 kts 89°
2026-05-06 14:03 51.16565 0.14509 5809 ft 269 kts 90°
2026-05-06 14:04 51.16526 0.17494 6593 ft 271 kts 87°
2026-05-06 14:04 51.16526 0.20511 7271 ft 274 kts 85°
2026-05-06 14:04 51.16541 0.23567 7928 ft 278 kts 87°
2026-05-06 14:04 51.16559 0.26678 8580 ft 283 kts 86°
2026-05-06 14:05 51.16574 0.29835 9222 ft 288 kts 88°
2026-05-06 14:05 51.16586 0.33044 9879 ft 292 kts 87°
2026-05-06 14:05 51.16592 0.36299 10470 ft 296 kts 88°
2026-05-06 14:05 51.16593 0.39595 11061 ft 300 kts 88°
2026-05-06 14:06 51.16594 0.42930 11672 ft 303 kts 88°
2026-05-06 14:06 51.16596 0.46301 12299 ft 306 kts 88°
2026-05-06 14:06 51.16869 0.49651 12882 ft 306 kts 69°
2026-05-06 14:06 51.17818 0.52670 13451 ft 305 kts 50°
2026-05-06 14:07 51.19351 0.54991 13998 ft 305 kts 28°
2026-05-06 14:07 51.21284 0.56340 14493 ft 304 kts 11°
2026-05-06 14:07 51.23354 0.57102 15011 ft 307 kts 10°
2026-05-06 14:07 51.25452 0.57873 15526 ft 311 kts 11°
2026-05-06 14:08 51.27567 0.58654 16048 ft 314 kts 11°
2026-05-06 14:08 51.29676 0.59441 16546 ft 317 kts 11°
2026-05-06 14:08 51.31832 0.60251 17052 ft 320 kts 11°
2026-05-06 14:08 51.34008 0.61073 17526 ft 323 kts 12°
2026-05-06 14:09 51.36210 0.61899 18017 ft 327 kts 11°
2026-05-06 14:09 51.38438 0.62733 18477 ft 330 kts 11°
2026-05-06 14:09 51.40709 0.63589 18680 ft 342 kts 11°
2026-05-06 14:09 51.43074 0.64483 18801 ft 355 kts 11°
2026-05-06 14:10 51.45529 0.65411 18934 ft 368 kts 11°
2026-05-06 14:10 51.48061 0.66369 19049 ft 381 kts 12°
2026-05-06 14:10 51.50679 0.67364 19174 ft 392 kts 11°
2026-05-06 14:10 51.53371 0.68386 19305 ft 403 kts 12°
2026-05-06 14:11 51.56118 0.69429 19583 ft 408 kts 12°
2026-05-06 14:11 51.58891 0.70492 19948 ft 411 kts 11°
2026-05-06 14:11 51.61685 0.71563 20336 ft 414 kts 11°
2026-05-06 14:11 51.64496 0.72634 20718 ft 416 kts 11°
2026-05-06 14:12 51.67326 0.73707 21100 ft 419 kts 12°
2026-05-06 14:12 51.70173 0.74792 21494 ft 421 kts 11°
2026-05-06 14:12 51.73039 0.75889 21865 ft 424 kts 11°
2026-05-06 14:12 51.75902 0.76751 22229 ft 424 kts 360°
2026-05-06 14:13 51.78791 0.76107 22570 ft 420 kts 338°
2026-05-06 14:13 51.81334 0.73866 22908 ft 418 kts 324°
2026-05-06 14:13 51.83884 0.71567 23243 ft 424 kts 339°
2026-05-06 14:13 51.86813 0.70822 23568 ft 432 kts
2026-05-06 14:14 51.89759 0.71904 23842 ft 441 kts 23°
2026-05-06 14:14 51.92297 0.74700 24121 ft 446 kts 44°
2026-05-06 14:14 51.94064 0.78829 24372 ft 451 kts 66°
2026-05-06 14:14 51.94803 0.83751 24673 ft 452 kts 88°
2026-05-06 14:15 51.94487 0.88818 24943 ft 453 kts 102°
2026-05-06 14:15 51.94060 0.93893 25218 ft 456 kts 92°
2026-05-06 14:15 51.94205 0.99033 25539 ft 458 kts 83°
2026-05-06 14:15 51.94716 1.04126 25903 ft 458 kts 79°
2026-05-06 14:16 51.95356 1.09195 26243 ft 460 kts 78°
2026-05-06 14:16 51.95959 1.14289 26546 ft 461 kts 80°
2026-05-06 14:16 51.96301 1.17700 26746 ft 462 kts 82°
2026-05-06 14:16 51.96715 1.22877 27039 ft 464 kts 84°
2026-05-06 14:17 51.97030 1.28095 27321 ft 466 kts 85°
2026-05-06 14:17 51.97288 1.33334 27614 ft 467 kts 86°
2026-05-06 14:17 51.97530 1.38608 27906 ft 469 kts 86°
2026-05-06 14:17 51.97784 1.43893 28138 ft 471 kts 86°
2026-05-06 14:18 51.98058 1.49188 28370 ft 473 kts 86°
2026-05-06 14:18 51.98351 1.54513 28554 ft 475 kts 85°
2026-05-06 14:18 51.98658 1.59849 28828 ft 475 kts 85°
2026-05-06 14:18 51.98968 1.65174 29153 ft 474 kts 85°
2026-05-06 14:19 51.99498 1.70447 29460 ft 474 kts 77°
2026-05-06 14:19 52.00311 1.75634 29775 ft 473 kts 76°
2026-05-06 14:19 52.01123 1.80818 30083 ft 473 kts 76°
2026-05-06 14:19 52.01927 1.85984 30352 ft 472 kts 76°
2026-05-06 14:20 52.02714 1.91067 30621 ft 471 kts 76°
2026-05-06 14:20 52.03509 1.96226 30882 ft 470 kts 77°
2026-05-06 14:20 52.04299 2.01379 31132 ft 470 kts 77°
2026-05-06 14:20 52.05088 2.06530 31379 ft 469 kts 77°
2026-05-06 14:21 52.05874 2.11679 31635 ft 469 kts 77°
2026-05-06 14:21 52.06660 2.16820 31878 ft 468 kts 76°
2026-05-06 14:21 52.07444 2.21953 32137 ft 468 kts 76°
2026-05-06 14:21 52.08223 2.27077 32377 ft 467 kts 76°
2026-05-06 14:22 52.08999 2.32216 32635 ft 466 kts 76°
2026-05-06 14:22 52.09768 2.37333 32865 ft 466 kts 76°
2026-05-06 14:22 52.10532 2.42449 33133 ft 465 kts 76°
2026-05-06 14:22 52.11293 2.47566 33342 ft 465 kts 77°
2026-05-06 14:23 52.12101 2.52664 33578 ft 465 kts 75°
2026-05-06 14:23 52.13011 2.57714 33790 ft 465 kts 73°
2026-05-06 14:23 52.13977 2.62662 34024 ft 464 kts 72°
2026-05-06 14:23 52.14983 2.67651 34197 ft 464 kts 72°
2026-05-06 14:24 52.15987 2.72651 34369 ft 464 kts 72°
2026-05-06 14:24 52.16971 2.77654 34525 ft 465 kts 73°
2026-05-06 14:24 52.17937 2.82679 34685 ft 465 kts 73°
2026-05-06 14:24 52.18887 2.87715 34861 ft 464 kts 73°
2026-05-06 14:25 52.20757 2.97822 34947 ft 466 kts 74°
2026-05-06 14:25 52.22623 3.07939 34947 ft 466 kts 74°
2026-05-06 14:26 52.24494 3.18082 34949 ft 467 kts 74°
2026-05-06 14:26 52.25715 3.28436 34944 ft 465 kts 89°
2026-05-06 14:27 52.25934 3.38992 34941 ft 466 kts 89°
2026-05-06 14:27 52.26141 3.49492 34944 ft 466 kts 89°
2026-05-06 14:28 52.26345 3.60075 34946 ft 466 kts 90°
2026-05-06 14:28 52.26536 3.70640 34948 ft 466 kts 90°
2026-05-06 14:29 52.26727 3.81210 34943 ft 466 kts 90°
2026-05-06 14:29 52.26906 3.91800 34944 ft 466 kts 90°
2026-05-06 14:30 52.27065 4.02298 34940 ft 465 kts 90°
2026-05-06 14:30 52.27213 4.12872 34949 ft 465 kts 90°
2026-05-06 14:31 52.27353 4.23408 34930 ft 464 kts 90°
2026-05-06 14:31 52.27493 4.33932 34926 ft 460 kts 90°
2026-05-06 14:32 52.27561 4.39077 34864 ft 447 kts 90°
2026-05-06 14:32 52.27625 4.44116 34897 ft 444 kts 90°
2026-05-06 14:32 52.27733 4.54326 34896 ft 455 kts 91°
2026-05-06 14:33 52.27835 4.64670 34890 ft 460 kts 90°
2026-05-06 14:33 52.27935 4.75143 34920 ft 461 kts 91°
2026-05-06 14:34 52.28026 4.85623 34920 ft 461 kts 91°
2026-05-06 14:34 52.28108 4.96102 34914 ft 462 kts 91°
2026-05-06 14:35 52.28181 5.06591 34919 ft 462 kts 91°
2026-05-06 14:35 52.28238 5.17082 34924 ft 462 kts 91°
2026-05-06 14:36 52.28285 5.27574 34910 ft 462 kts 91°
2026-05-06 14:36 52.28329 5.38073 34912 ft 462 kts 91°
2026-05-06 14:37 52.28366 5.48492 34908 ft 462 kts 91°
2026-05-06 14:37 52.28403 5.58975 34919 ft 462 kts 91°
2026-05-06 14:38 52.28423 5.69464 34912 ft 461 kts 91°
2026-05-06 14:38 52.28424 5.79930 34922 ft 461 kts 91°
2026-05-06 14:39 52.28415 5.90424 34914 ft 461 kts 91°
2026-05-06 14:39 52.28396 6.00900 34923 ft 460 kts 92°
2026-05-06 14:40 52.28376 6.11344 34920 ft 460 kts 92°
2026-05-06 14:40 52.28347 6.21777 34928 ft 459 kts 92°
2026-05-06 14:41 52.28299 6.32132 34922 ft 459 kts 92°
2026-05-06 14:41 52.28250 6.42564 34920 ft 459 kts 92°
2026-05-06 14:42 52.28192 6.52986 34916 ft 459 kts 92°
2026-05-06 14:42 52.28130 6.63419 34912 ft 459 kts 92°
2026-05-06 14:43 52.28058 6.73856 34907 ft 459 kts 92°
2026-05-06 14:43 52.27972 6.84277 34910 ft 459 kts 92°
2026-05-06 14:44 52.27874 6.94694 34895 ft 459 kts 92°
2026-05-06 14:45 52.27717 7.10359 34896 ft 460 kts 92°
2026-05-06 14:45 52.27597 7.20753 34894 ft 461 kts 93°
2026-05-06 14:46 52.27469 7.31226 34898 ft 461 kts 93°
2026-05-06 14:46 52.27336 7.41698 34898 ft 462 kts 93°
2026-05-06 14:47 52.27187 7.52184 34882 ft 462 kts 93°
2026-05-06 14:47 52.27032 7.62688 34888 ft 464 kts 93°
2026-05-06 14:48 52.26865 7.73211 34884 ft 463 kts 93°
2026-05-06 14:48 52.26688 7.83711 34888 ft 463 kts 94°
2026-05-06 14:49 52.26504 7.94214 34875 ft 463 kts 94°
2026-05-06 14:49 52.26310 8.04680 34873 ft 464 kts 94°
2026-05-06 14:50 52.26108 8.15228 34866 ft 465 kts 94°
2026-05-06 14:50 52.25893 8.25773 34868 ft 465 kts 94°
2026-05-06 14:51 52.25669 8.36321 34859 ft 464 kts 94°
2026-05-06 14:51 52.25440 8.46858 34846 ft 465 kts 94°
2026-05-06 14:52 52.25197 8.57415 34836 ft 466 kts 94°
2026-05-06 14:52 52.24942 8.67996 34842 ft 467 kts 94°
2026-05-06 14:53 52.24678 8.78605 34848 ft 468 kts 94°
2026-05-06 14:53 52.24413 8.89145 34851 ft 468 kts 95°
2026-05-06 14:54 52.24136 8.99765 34832 ft 468 kts 95°
2026-05-06 14:54 52.23848 9.10397 34834 ft 469 kts 95°
2026-05-06 14:55 52.23538 9.21045 34839 ft 470 kts 95°
2026-05-06 14:55 52.23500 9.31714 34841 ft 472 kts 89°
2026-05-06 14:56 52.23834 9.42432 34844 ft 473 kts 89°
2026-05-06 14:56 52.24144 9.53147 34847 ft 473 kts 90°
2026-05-06 14:57 52.24437 9.63825 34851 ft 473 kts 90°
2026-05-06 14:57 52.24717 9.74553 34808 ft 473 kts 90°
2026-05-06 14:57 52.24854 9.79917 34563 ft 472 kts 90°
2026-05-06 14:58 52.25060 9.85257 34325 ft 472 kts 84°
2026-05-06 14:58 52.25730 9.90505 34091 ft 474 kts 74°
2026-05-06 14:58 52.26887 9.95570 33833 ft 477 kts 69°
2026-05-06 14:58 52.28160 10.00579 33557 ft 478 kts 69°
2026-05-06 14:59 52.29226 10.05702 33281 ft 475 kts 81°
2026-05-06 14:59 52.29547 10.11030 33019 ft 470 kts 92°
2026-05-06 14:59 52.29578 10.16371 32740 ft 471 kts 92°
2026-05-06 14:59 52.29593 10.21655 32475 ft 471 kts 92°
2026-05-06 15:00 52.29601 10.27000 32209 ft 471 kts 92°
2026-05-06 15:00 52.29607 10.32353 31941 ft 471 kts 92°
2026-05-06 15:00 52.29614 10.37689 31681 ft 470 kts 92°
2026-05-06 15:00 52.29620 10.43030 31425 ft 470 kts 92°
2026-05-06 15:01 52.29624 10.48385 31162 ft 472 kts 93°
2026-05-06 15:01 52.29626 10.53753 30918 ft 473 kts 93°
2026-05-06 15:01 52.29625 10.59119 30669 ft 472 kts 93°
2026-05-06 15:01 52.29624 10.64485 30422 ft 471 kts 93°
2026-05-06 15:02 52.29621 10.69839 30177 ft 471 kts 93°
2026-05-06 15:02 52.29614 10.75192 29922 ft 471 kts 93°
2026-05-06 15:02 52.29603 10.80537 29652 ft 470 kts 93°
2026-05-06 15:02 52.29591 10.85813 28675 ft 472 kts 93°
2026-05-06 15:03 52.29576 10.91169 28036 ft 466 kts 93°
2026-05-06 15:03 52.29559 10.96431 27432 ft 460 kts 94°
2026-05-06 15:03 52.29541 11.01640 26824 ft 455 kts 94°
2026-05-06 15:03 52.29520 11.06792 26210 ft 451 kts 94°
2026-05-06 15:04 52.29495 11.11897 25600 ft 447 kts 94°
2026-05-06 15:04 52.29470 11.16951 25005 ft 443 kts 94°
2026-05-06 15:04 52.29445 11.21964 24412 ft 439 kts 94°
2026-05-06 15:04 52.29416 11.26923 23826 ft 435 kts 94°
2026-05-06 15:05 52.29387 11.31853 23213 ft 432 kts 94°
2026-05-06 15:05 52.29357 11.36736 22601 ft 427 kts 94°
2026-05-06 15:05 52.29325 11.41561 22043 ft 422 kts 94°
2026-05-06 15:05 52.29292 11.46326 21475 ft 417 kts 94°
2026-05-06 15:06 52.29255 11.50973 20966 ft 413 kts 94°
2026-05-06 15:06 52.29216 11.55653 20443 ft 409 kts 94°
2026-05-06 15:06 52.29176 11.60272 19941 ft 404 kts 94°
2026-05-06 15:06 52.29133 11.64845 19444 ft 400 kts 94°
2026-05-06 15:07 52.29089 11.69370 18965 ft 397 kts 94°
2026-05-06 15:07 52.29043 11.73858 18493 ft 393 kts 94°
2026-05-06 15:07 52.28996 11.78293 17996 ft 389 kts 94°
2026-05-06 15:07 52.28949 11.82685 17490 ft 385 kts 94°
2026-05-06 15:08 52.28903 11.87041 17007 ft 382 kts 94°
2026-05-06 15:08 52.28855 11.91363 16526 ft 379 kts 94°
2026-05-06 15:08 52.28805 11.95657 16017 ft 376 kts 94°
2026-05-06 15:08 52.28769 11.98479 15705 ft 374 kts 94°
2026-05-06 15:09 52.28699 12.04077 15027 ft 371 kts 94°
2026-05-06 15:09 52.28647 12.08267 14536 ft 368 kts 94°
2026-05-06 15:09 52.28595 12.12434 14022 ft 365 kts 94°
2026-05-06 15:09 52.28539 12.16570 13503 ft 363 kts 94°
2026-05-06 15:10 52.28480 12.20677 12948 ft 361 kts 94°
2026-05-06 15:10 52.28441 12.23378 12623 ft 358 kts 94°
2026-05-06 15:10 52.28382 12.27425 12109 ft 355 kts 94°
2026-05-06 15:10 52.28325 12.31435 11605 ft 352 kts 94°
2026-05-06 15:11 52.28268 12.35413 11104 ft 349 kts 94°
2026-05-06 15:11 52.28211 12.39365 10618 ft 347 kts 94°
2026-05-06 15:11 52.28151 12.43233 10468 ft 332 kts 94°
2026-05-06 15:11 52.28091 12.46930 10309 ft 319 kts 94°
2026-05-06 15:12 52.28031 12.50510 10073 ft 312 kts 94°
2026-05-06 15:12 52.27973 12.54000 9880 ft 308 kts 94°
2026-05-06 15:12 52.27915 12.57491 9764 ft 308 kts 94°
2026-05-06 15:12 52.27855 12.60977 9639 ft 307 kts 94°
2026-05-06 15:13 52.27793 12.64466 9502 ft 307 kts 94°
2026-05-06 15:13 52.27729 12.67948 9197 ft 307 kts 94°
2026-05-06 15:13 52.27663 12.71436 8740 ft 308 kts 94°
2026-05-06 15:13 52.27597 12.74920 8356 ft 305 kts 93°
2026-05-06 15:14 52.27533 12.78386 7933 ft 304 kts 93°
2026-05-06 15:14 52.27472 12.81810 7382 ft 299 kts 93°
2026-05-06 15:14 52.27409 12.85171 6906 ft 295 kts 93°
2026-05-06 15:14 52.27342 12.88510 6462 ft 294 kts 93°
2026-05-06 15:15 52.27275 12.91833 6004 ft 291 kts 93°
2026-05-06 15:15 52.27209 12.95118 5569 ft 285 kts 93°
2026-05-06 15:15 52.27148 12.98196 5356 ft 264 kts 93°
2026-05-06 15:15 52.27090 13.01120 5012 ft 254 kts 93°
2026-05-06 15:16 52.27029 13.03979 4745 ft 250 kts 93°
2026-05-06 15:16 52.26967 13.06795 4456 ft 246 kts 93°
2026-05-06 15:16 52.26908 13.09574 4158 ft 243 kts 92°
2026-05-06 15:16 52.26851 13.12265 4035 ft 231 kts 92°
2026-05-06 15:17 52.26954 13.14793 3928 ft 218 kts 77°
2026-05-06 15:17 52.27402 13.17068 3760 ft 205 kts 68°
2026-05-06 15:17 52.27904 13.19165 3617 ft 191 kts 68°
2026-05-06 15:17 52.28383 13.21144 3490 ft 189 kts 68°
2026-05-06 15:18 52.28860 13.23119 3276 ft 185 kts 67°
2026-05-06 15:18 52.29330 13.25070 3036 ft 183 kts 67°
2026-05-06 15:18 52.29794 13.27000 2800 ft 182 kts 68°
2026-05-06 15:18 52.30254 13.28913 2549 ft 180 kts 68°
2026-05-06 15:19 52.30709 13.30812 2300 ft 179 kts 67°
2026-05-06 15:19 52.31149 13.32648 2078 ft 164 kts 66°
2026-05-06 15:19 52.31545 13.34301 1849 ft 150 kts 68°
2026-05-06 15:19 52.31917 13.35851 1653 ft 144 kts 67°
2026-05-06 15:20 52.32279 13.37363 1466 ft 142 kts 67°
2026-05-06 15:20 52.32636 13.38856 1257 ft 140 kts 67°
2026-05-06 15:20 52.32992 13.40341 1057 ft 140 kts 66°
2026-05-06 15:20 52.33342 13.41824 863 ft 141 kts 67°
2026-05-06 15:21 52.33700 13.43317 645 ft 139 kts 66°
2026-05-06 15:21 52.34052 13.44795 430 ft 138 kts 65°
2026-05-06 15:21 52.34403 13.46250 291 ft 137 kts 66°
2026-05-06 15:21 52.34742 13.47711 170 ft 136 kts 61°
2026-05-06 15:22 52.35046 13.48956 154 ft 95 kts 69°
2026-05-06 15:22 52.35219 13.49684 154 ft 29 kts 68°
2026-05-06 15:22 52.35291 13.49868 154 ft 13 kts 48°
2026-05-06 15:22 52.35352 13.49963 154 ft 14 kts 40°
2026-05-06 15:23 52.35425 13.50060 154 ft 14 kts 39°
2026-05-06 15:23 52.35437 13.50075 154 ft 0 kts 39°
2026-05-06 15:24 52.35457 13.50102 154 ft 9 kts 38°
2026-05-06 15:24 52.35512 13.50171 154 ft 11 kts 37°
2026-05-06 15:24 52.35576 13.50254 154 ft 12 kts 42°
2026-05-06 15:25 52.35621 13.50384 154 ft 14 kts 68°
2026-05-06 15:25 52.35658 13.50540 154 ft 15 kts 69°
2026-05-06 15:25 52.35695 13.50700 154 ft 13 kts 69°
2026-05-06 15:25 52.35728 13.50806 155 ft 10 kts 41°
2026-05-06 15:26 52.35783 13.50815 155 ft 6 kts 345°
2026-05-06 15:26 52.35825 13.50790 155 ft 7 kts 339°
2026-05-06 15:26 52.35877 13.50757 155 ft 9 kts 339°
2026-05-06 15:26 52.35941 13.50717 155 ft 11 kts 339°
2026-05-06 15:27 52.36015 13.50672 155 ft 12 kts 339°
2026-05-06 15:27 52.36098 13.50620 155 ft 14 kts 338°
2026-05-06 15:27 52.36190 13.50560 155 ft 15 kts 339°
2026-05-06 15:27 52.36289 13.50498 155 ft 14 kts 338°
2026-05-06 15:28 52.36353 13.50457 155 ft 9 kts 339°
2026-05-06 15:28 52.36411 13.50422 155 ft 6 kts 341°
2026-05-06 15:28 52.36445 13.50454 155 ft 7 kts 56°
2026-05-06 15:28 52.36458 13.50500 155 ft 4 kts 67°
2026-05-06 15:29 52.36464 13.50528 155 ft 2 kts 68°
2026-05-06 15:29 52.36466 13.50535 155 ft 0 kts 68°